Egegik Airport
PAII : now visible

Airfield :











YOU CAN JOIN US ON...

 
LOGIN :

Register | Disclaimer

   EN    FR    IT 

 









Legend :    VFR   Marginal VFR   IFR   Intensive IFR   Very Intensive IFR
Visi :
Ceiling :
>= 8 km
>= 3000ft
5 to 8 km
1000 to 3000 ft
1500m to 5 km
500 to 1000 ft
800 to 1500m
200 to 500 ft
< 800m
< 200 ft
Symbols :   Thunderstorms  Fog  Heavy snow  Heavy precipitations  Wind > 20 kt






- Airport Elevation : 92 ft
- IATA code : EII


PAII - Egegik

CURRENT METAR :
  • 010656Z AUTO 14017KT 10SM OVC080 13/12 A3004 RMK AO2 SLP168 T01330117

EXPIRED METARs :
  • 010556Z AUTO 15014G20KT 10SM OVC090 14/12 A3003 RMK AO2 SLP168 T01390117 10178 20139 50001
  • 010456Z AUTO 14014KT 10SM FEW042 BKN090 OVC120 14/12 A3004 RMK AO2 SLP170 T01440122

TAF N/A
PAZA FIR / North America



MET'MAP, your aeronautical weather chart ! - Copyright ORBIFLY December 2007 - Disclaimer

ORBIFLY MET'MAP TEAM :

Programming & Development : Alexandra Zaïnal
Concept & original design : Baudouin d'Aumeries
Assistance for programming : Marc-Olivier Méhu
Technical & hardware support : Manuel Goepfert

Contact : metmap@orbifly.com




SOURCES & CREDITS :

   NOAA       Earth
Advisory